Regional Weather Roundup
Issued by NWS Green Bay, WI

Home | Current Version | Previous Version | Text Only | Print | Product List | Glossary On
Versions: 1 2 3 4 5 6 7 8 9 10 11 12 13 14 15 16 17 18 19 20 21 22 23 24 25 26 27 28 29 30 31 32 33 34 35 36 37 38 39 40 41 42 43 44 45 46 47 48 49 50
000
ASUS43 KGRB 161159
RWRGRB

NORTH-CENTRAL AND NORTHEAST WISCONSIN REGIONAL WEATHER ROUNDUP
NATIONAL WEATHER SERVICE GREEN BAY WI
700 AM CDT WED APR 16 2014

WIZ005-009-010>012-018-019-161300-
NORTH CENTRAL WISCONSIN

CITY           SKY/WX    TMP DP  RH WIND       PRES   REMARKS
IRONWOOD       CLOUDY    21   5  49 SE8       30.14R
MANITOWISH WTR NOT AVBL
ARBOR VITAE    NOT AVBL
EAGLE RIVER    NOT AVBL
LAND O LAKES   NOT AVBL
RHINELANDER    CLOUDY    17  12  80 E5        30.17R WCI  10
PHILLIPS       NOT AVBL
ANTIGO         NOT AVBL
TOMAHAWK       NOT AVBL
MERRILL        NOT AVBL
$$

WIZ013-073-161300-
NORTHEAST WISCONSIN

CITY           SKY/WX    TMP DP  RH WIND       PRES   REMARKS
IRON MOUNTAIN  MOCLDY    10   7  87 CALM      30.22R
MARINETTE      PTCLDY    19  18  93 CALM      30.27R
$$

WIZ017-030-035>037-045-161300-
CENTRAL WISCONSIN

CITY           SKY/WX    TMP DP  RH WIND       PRES   REMARKS
MEDFORD        NOT AVBL
WAUSAU         CLOUDY    26  16  65 S9        30.18R
MOSINEE        LGT SNOW  25  21  86 SE10      30.20R
MARSHFIELD     CLOUDY    27  21  78 SE10      30.17R
WISC RAPIDS    CLOUDY    28  19  69 SE7       30.21R
STEVENS POINT  NOT AVBL
WAUPACA        NOT AVBL
SHAWANO        NOT AVBL
CLINTONVILLE   NOT AVBL
$$

WIZ038-039-048-051-161300-
FOX VALLEY

CITY           SKY/WX    TMP DP  RH WIND       PRES   REMARKS
NWS GREEN BAY  CLOUDY    27  22  81 CALM      30.26R
APPLETON       MOCLDY    28  23  80 SE7       30.24R
OSHKOSH        CLOUDY    31  25  78 SE12      30.24R
FOND DU LAC    CLOUDY    31  26  82 SE9       30.25R
$$

WIZ022-050-052-161300-
EAST CENTRAL WISCONSIN

CITY           SKY/WX    TMP DP  RH WIND       PRES   REMARKS
STURGEON BAY   CLEAR     27  16  63 S6        30.28R
MANITOWOC      NOT AVBL
SHEBOYGAN      CLOUDY    31  26  82 SE7       30.27R
$$

LMZ563-521-522-541>543-161300-
LAKESHORE

STATION/POSITION TIME  TEMP    WIND        PRES    VSBY  WAVE
                       AIR SEA DIR/SP/G                  HT/PER
                 (UTC) (F)     (DEG/KT/KT) (MB)    (MI)  (FT/S)
SHEBOYGAN LKSHOR 1100   33     150/ 15/ 16 1025.6R
KEWAUNEE LKSHORE 1100   25     290/  2/  2 1025.5R
NORTHPORT PIER   1100   27     180/  2/  4 1025.1R
SISTER BAY LKSHO 1100   20        CALM       N/A
MENOMINEE LKSHOR 1100   20     100/  1/  2 1025.5R
$$



USA.gov is the U.S. government's official web portal to all federal, state and local government web resources and services.